N8285B -KEEN

Flight info

Callsign N8285B
Flight time N/A
Altitude VFR/045
Route PUT GDM
Aircraft PA24/L-DOV/C

Departure

Time N/A
Airport -

Arrival

Time 2026-04-24 23:47
Airport Dillant Hopkins Airport (KEEN)
Time Latitude Longitude Altitude Speed Heading
2026-04-24 22:56 41.92018 -70.84193 4221 ft 84 kts 274°
2026-04-24 22:56 41.92063 -70.84957 4469 ft 81 kts 273°
2026-04-24 22:56 41.92117 -70.85785 4539 ft 102 kts 275°
2026-04-24 22:56 41.92177 -70.86772 4620 ft 110 kts 275°
2026-04-24 22:57 41.92247 -70.87880 4570 ft 127 kts 275°
2026-04-24 22:57 41.92336 -70.89101 4521 ft 134 kts 277°
2026-04-24 22:57 41.92460 -70.90347 4502 ft 135 kts 278°
2026-04-24 22:57 41.92618 -70.91600 4457 ft 137 kts 281°
2026-04-24 22:58 41.92774 -70.92857 4467 ft 136 kts 276°
2026-04-24 22:58 41.92861 -70.94103 4525 ft 131 kts 274°
2026-04-24 22:58 41.92934 -70.95316 4521 ft 134 kts 275°
2026-04-24 22:58 41.93020 -70.96581 4538 ft 133 kts 276°
2026-04-24 22:59 41.93129 -70.97793 4553 ft 133 kts 277°
2026-04-24 22:59 41.93260 -70.99035 4547 ft 134 kts 279°
2026-04-24 22:59 41.93569 -71.01498 4532 ft 137 kts 279°
2026-04-24 23:00 41.93717 -71.02756 4522 ft 135 kts 278°
2026-04-24 23:00 41.93842 -71.04009 4514 ft 136 kts 277°
2026-04-24 23:00 41.93979 -71.05266 4511 ft 135 kts 280°
2026-04-24 23:00 41.94121 -71.06455 4648 ft 126 kts 276°
2026-04-24 23:01 41.94206 -71.07645 4645 ft 131 kts 274°
2026-04-24 23:01 41.94277 -71.08878 4632 ft 134 kts 274°
2026-04-24 23:01 41.94340 -71.10137 4616 ft 133 kts 274°
2026-04-24 23:01 41.94397 -71.11351 4640 ft 130 kts 273°
2026-04-24 23:02 41.94417 -71.12554 4649 ft 131 kts 268°
2026-04-24 23:02 41.94388 -71.13772 4709 ft 130 kts 269°
2026-04-24 23:02 41.94376 -71.15010 4640 ft 134 kts 270°
2026-04-24 23:02 41.94398 -71.16245 4646 ft 131 kts 272°
2026-04-24 23:03 41.94449 -71.17471 4634 ft 130 kts 274°
2026-04-24 23:03 41.94528 -71.18670 4647 ft 128 kts 276°
2026-04-24 23:03 41.94635 -71.19857 4655 ft 127 kts 277°
2026-04-24 23:03 41.94767 -71.21034 4668 ft 128 kts 279°
2026-04-24 23:04 41.94931 -71.22209 4671 ft 129 kts 281°
2026-04-24 23:04 41.95123 -71.23385 4671 ft 131 kts 284°
2026-04-24 23:04 41.95388 -71.24566 4693 ft 131 kts 287°
2026-04-24 23:04 41.95610 -71.25748 4689 ft 132 kts 278°
2026-04-24 23:05 41.95733 -71.26978 4682 ft 130 kts 277°
2026-04-24 23:05 41.95836 -71.28174 4628 ft 131 kts 275°
2026-04-24 23:05 41.95915 -71.29385 4645 ft 129 kts 275°
2026-04-24 23:05 41.95992 -71.30591 4674 ft 131 kts 275°
2026-04-24 23:06 41.96097 -71.31811 4646 ft 131 kts 277°
2026-04-24 23:06 41.96206 -71.33006 4680 ft 128 kts 277°
2026-04-24 23:06 41.96293 -71.34205 4663 ft 129 kts 274°
2026-04-24 23:06 41.96364 -71.35406 4644 ft 131 kts 274°
2026-04-24 23:07 41.96469 -71.36612 4632 ft 130 kts 278°
2026-04-24 23:07 41.96579 -71.37800 4661 ft 127 kts 275°
2026-04-24 23:07 41.96641 -71.38992 4654 ft 128 kts 268°
2026-04-24 23:07 41.96576 -71.40187 4679 ft 129 kts 265°
2026-04-24 23:08 41.96517 -71.41403 4642 ft 131 kts 266°
2026-04-24 23:08 41.96441 -71.42609 4602 ft 132 kts 264°
2026-04-24 23:08 41.96343 -71.43846 4586 ft 130 kts 264°
2026-04-24 23:08 41.96256 -71.45035 4663 ft 128 kts 265°
2026-04-24 23:09 41.96194 -71.46244 4610 ft 132 kts 266°
2026-04-24 23:09 41.96143 -71.47441 4666 ft 126 kts 267°
2026-04-24 23:09 41.96107 -71.48636 4636 ft 129 kts 268°
2026-04-24 23:09 41.96084 -71.49841 4672 ft 127 kts 269°
2026-04-24 23:10 41.96065 -71.51050 4640 ft 129 kts 269°
2026-04-24 23:10 41.96041 -71.52260 4621 ft 130 kts 267°
2026-04-24 23:10 41.95994 -71.53461 4625 ft 128 kts 267°
2026-04-24 23:10 41.95921 -71.54658 4615 ft 129 kts 264°
2026-04-24 23:11 41.95987 -71.55797 4755 ft 119 kts 284°
2026-04-24 23:11 41.96317 -71.56806 4780 ft 121 kts 299°
2026-04-24 23:11 41.96781 -71.57785 4733 ft 127 kts 301°
2026-04-24 23:11 41.97250 -71.58816 4690 ft 130 kts 298°
2026-04-24 23:12 41.97700 -71.59864 4723 ft 130 kts 300°
2026-04-24 23:12 41.98193 -71.60897 4689 ft 132 kts 302°
2026-04-24 23:12 41.98695 -71.61913 4718 ft 130 kts 301°
2026-04-24 23:12 41.99189 -71.62937 4692 ft 131 kts 301°
2026-04-24 23:13 41.99680 -71.63967 4690 ft 130 kts 301°
2026-04-24 23:13 42.00184 -71.64982 4676 ft 131 kts 301°
2026-04-24 23:13 42.00665 -71.66014 4679 ft 129 kts 299°
2026-04-24 23:13 42.01127 -71.67055 4698 ft 131 kts 299°
2026-04-24 23:14 42.01587 -71.68110 4696 ft 130 kts 299°
2026-04-24 23:14 42.02042 -71.69164 4684 ft 130 kts 295°
2026-04-24 23:14 42.02294 -71.70335 4643 ft 132 kts 272°
2026-04-24 23:14 42.02362 -71.71538 4679 ft 127 kts 283°
2026-04-24 23:15 42.02663 -71.72678 4652 ft 130 kts 292°
2026-04-24 23:15 42.03041 -71.73758 4646 ft 130 kts 295°
2026-04-24 23:15 42.03449 -71.74840 4652 ft 129 kts 297°
2026-04-24 23:15 42.03879 -71.75901 4629 ft 130 kts 296°
2026-04-24 23:16 42.04282 -71.77002 4607 ft 131 kts 297°
2026-04-24 23:16 42.04816 -71.77967 4628 ft 129 kts 310°
2026-04-24 23:16 42.05464 -71.78799 4651 ft 128 kts 317°
2026-04-24 23:16 42.06170 -71.79547 4627 ft 130 kts 320°
2026-04-24 23:17 42.06875 -71.80302 4646 ft 130 kts 318°
2026-04-24 23:17 42.07572 -71.81076 4647 ft 130 kts 317°
2026-04-24 23:17 42.08241 -71.81878 4620 ft 131 kts 315°
2026-04-24 23:17 42.08905 -71.82693 4682 ft 126 kts 315°
2026-04-24 23:18 42.09559 -71.83485 4681 ft 128 kts 315°
2026-04-24 23:18 42.10227 -71.84289 4663 ft 129 kts 315°
2026-04-24 23:18 42.10876 -71.85121 4670 ft 128 kts 313°
2026-04-24 23:18 42.11516 -71.85959 4696 ft 128 kts 313°
2026-04-24 23:19 42.12135 -71.86819 4768 ft 128 kts 311°
2026-04-24 23:19 42.12761 -71.87680 4765 ft 131 kts 312°
2026-04-24 23:19 42.13438 -71.88574 4644 ft 138 kts 314°
2026-04-24 23:19 42.14123 -71.89442 4691 ft 134 kts 315°
2026-04-24 23:20 42.14828 -71.90293 4643 ft 136 kts 316°
2026-04-24 23:20 42.15585 -71.91015 4634 ft 135 kts 324°
2026-04-24 23:20 42.16357 -71.91740 4604 ft 135 kts 323°
2026-04-24 23:20 42.17138 -71.92432 4621 ft 133 kts 326°
2026-04-24 23:21 42.17986 -71.92953 4605 ft 136 kts 336°
2026-04-24 23:21 42.18872 -71.93439 4569 ft 137 kts 334°
2026-04-24 23:21 42.19751 -71.93915 4579 ft 135 kts 335°
2026-04-24 23:21 42.20619 -71.94377 4592 ft 134 kts 335°
2026-04-24 23:22 42.21492 -71.94807 4590 ft 134 kts 338°
2026-04-24 23:22 42.22356 -71.95203 4608 ft 132 kts 339°
2026-04-24 23:22 42.23241 -71.95561 4588 ft 134 kts 341°
2026-04-24 23:22 42.24136 -71.95926 4591 ft 133 kts 340°
2026-04-24 23:23 42.25023 -71.96311 4581 ft 134 kts 338°
2026-04-24 23:23 42.25897 -71.96751 4572 ft 134 kts 335°
2026-04-24 23:23 42.26760 -71.97208 4584 ft 133 kts 336°
2026-04-24 23:23 42.27629 -71.97649 4578 ft 133 kts 337°
2026-04-24 23:24 42.28497 -71.98037 4584 ft 133 kts 341°
2026-04-24 23:24 42.29393 -71.98337 4603 ft 132 kts 343°
2026-04-24 23:24 42.30268 -71.98722 4606 ft 133 kts 334°
2026-04-24 23:24 42.31098 -71.99280 4588 ft 134 kts 328°
2026-04-24 23:25 42.31884 -71.99942 4613 ft 131 kts 324°
2026-04-24 23:25 42.32647 -72.00616 4596 ft 133 kts 327°
2026-04-24 23:25 42.33492 -72.01066 4631 ft 131 kts 345°
2026-04-24 23:25 42.34399 -72.01188 4641 ft 133 kts 353°
2026-04-24 23:26 42.35320 -72.01093 4665 ft 134 kts 11°
2026-04-24 23:26 42.36205 -72.00660 4675 ft 136 kts 19°
2026-04-24 23:26 42.37102 -72.00164 4632 ft 139 kts 19°
2026-04-24 23:26 42.37993 -71.99686 4648 ft 138 kts 19°
2026-04-24 23:27 42.38896 -71.99227 4650 ft 138 kts 17°
2026-04-24 23:27 42.39800 -71.98832 4643 ft 138 kts
2026-04-24 23:27 42.40740 -71.98843 4676 ft 135 kts 339°
2026-04-24 23:27 42.41543 -71.99501 4659 ft 132 kts 323°
2026-04-24 23:28 42.42290 -72.00204 4672 ft 132 kts 321°
2026-04-24 23:28 42.43052 -72.00936 4626 ft 135 kts 326°
2026-04-24 23:28 42.43853 -72.01570 4665 ft 132 kts 326°
2026-04-24 23:28 42.44650 -72.02207 4649 ft 134 kts 327°
2026-04-24 23:29 42.45425 -72.02900 4659 ft 132 kts 321°
2026-04-24 23:29 42.46233 -72.03507 4646 ft 133 kts 331°
2026-04-24 23:29 42.47078 -72.04031 4625 ft 134 kts 335°
2026-04-24 23:29 42.47978 -72.04388 4622 ft 136 kts 347°
2026-04-24 23:30 42.48923 -72.04402 4608 ft 138 kts
2026-04-24 23:30 42.49864 -72.04078 4597 ft 139 kts 12°
2026-04-24 23:30 42.50804 -72.03804 4607 ft 138 kts
2026-04-24 23:30 42.51764 -72.03677 4584 ft 138 kts
2026-04-24 23:31 42.52719 -72.03585 4594 ft 137 kts 359°
2026-04-24 23:31 42.53659 -72.03668 4570 ft 138 kts 347°
2026-04-24 23:31 42.54588 -72.03927 4586 ft 135 kts 345°
2026-04-24 23:31 42.55497 -72.04233 4604 ft 135 kts 338°
2026-04-24 23:32 42.56362 -72.04726 4581 ft 135 kts 330°
2026-04-24 23:32 42.57187 -72.05316 4586 ft 133 kts 330°
2026-04-24 23:32 42.58013 -72.05892 4567 ft 134 kts 330°
2026-04-24 23:32 42.58852 -72.06435 4584 ft 133 kts 333°
2026-04-24 23:33 42.59714 -72.06925 4562 ft 134 kts 335°
2026-04-24 23:33 42.60281 -72.07245 4571 ft 133 kts 334°
2026-04-24 23:33 42.61453 -72.07829 4577 ft 136 kts 339°
2026-04-24 23:33 42.62333 -72.08265 4589 ft 134 kts 336°
2026-04-24 23:34 42.63205 -72.08664 4578 ft 135 kts 338°
2026-04-24 23:34 42.64102 -72.09045 4568 ft 135 kts 341°
2026-04-24 23:34 42.64997 -72.09411 4575 ft 134 kts 339°
2026-04-24 23:34 42.65879 -72.09834 4561 ft 133 kts 335°
2026-04-24 23:35 42.66716 -72.10314 4446 ft 127 kts 334°
2026-04-24 23:35 42.67544 -72.10695 4264 ft 127 kts 342°
2026-04-24 23:35 42.68401 -72.10912 4124 ft 126 kts 358°
2026-04-24 23:35 42.69257 -72.10831 4007 ft 123 kts
2026-04-24 23:36 42.70094 -72.10687 3827 ft 126 kts
2026-04-24 23:36 42.70956 -72.10680 3742 ft 120 kts 345°
2026-04-24 23:36 42.71720 -72.10954 3687 ft 110 kts 342°
2026-04-24 23:36 42.72445 -72.11212 3586 ft 104 kts 340°
2026-04-24 23:37 42.73117 -72.11519 3531 ft 98 kts 334°
2026-04-24 23:37 42.73734 -72.11821 3496 ft 92 kts 337°
2026-04-24 23:37 42.74968 -72.12363 3330 ft 92 kts 337°
2026-04-24 23:38 42.75570 -72.12677 3260 ft 92 kts 334°
2026-04-24 23:38 42.76150 -72.13008 3180 ft 92 kts 332°
2026-04-24 23:38 42.76740 -72.13368 3101 ft 92 kts 330°
2026-04-24 23:38 42.77324 -72.13741 3014 ft 93 kts 331°
2026-04-24 23:39 42.77908 -72.14109 2981 ft 94 kts 331°
2026-04-24 23:39 42.78488 -72.14499 2990 ft 92 kts 331°
2026-04-24 23:39 42.79078 -72.14864 2970 ft 93 kts 331°
2026-04-24 23:39 42.79665 -72.15230 2972 ft 93 kts 331°
2026-04-24 23:40 42.80238 -72.15640 2981 ft 93 kts 326°
2026-04-24 23:40 42.80790 -72.16089 3007 ft 93 kts 323°
2026-04-24 23:40 42.81341 -72.16575 3014 ft 95 kts 324°
2026-04-24 23:40 42.81911 -72.17052 2886 ft 98 kts 325°
2026-04-24 23:41 42.82488 -72.17538 2779 ft 97 kts 324°
2026-04-24 23:41 42.83048 -72.18045 2672 ft 97 kts 322°
2026-04-24 23:41 42.83585 -72.18586 2580 ft 95 kts 318°
2026-04-24 23:41 42.84082 -72.19163 2488 ft 93 kts 316°
2026-04-24 23:42 42.84565 -72.19746 2377 ft 92 kts 315°
2026-04-24 23:42 42.85023 -72.20336 2306 ft 90 kts 312°
2026-04-24 23:42 42.85457 -72.20957 2180 ft 92 kts 308°
2026-04-24 23:42 42.85865 -72.21622 2095 ft 90 kts 307°
2026-04-24 23:43 42.86270 -72.22266 2034 ft 89 kts 310°
2026-04-24 23:43 42.86691 -72.22859 1987 ft 88 kts 312°
2026-04-24 23:43 42.87128 -72.23454 1909 ft 89 kts 312°
2026-04-24 23:43 42.87566 -72.24052 1825 ft 90 kts 312°
2026-04-24 23:44 42.88088 -72.24523 1732 ft 92 kts 333°
2026-04-24 23:44 42.88673 -72.24849 1642 ft 87 kts 334°
2026-04-24 23:44 42.89223 -72.25087 1550 ft 80 kts 347°
2026-04-24 23:44 42.89783 -72.25073 1529 ft 83 kts 359°
2026-04-24 23:45 42.90359 -72.24999 1556 ft 83 kts
2026-04-24 23:45 42.90937 -72.24906 1574 ft 85 kts
2026-04-24 23:45 42.91521 -72.24809 1585 ft 84 kts
2026-04-24 23:45 42.92072 -72.24985 1549 ft 85 kts 317°
2026-04-24 23:46 42.92319 -72.25666 1469 ft 81 kts 274°
2026-04-24 23:46 42.92304 -72.26423 1314 ft 78 kts 256°
2026-04-24 23:46 42.91953 -72.26946 1095 ft 80 kts 202°
2026-04-24 23:46 42.91383 -72.26925 840 ft 82 kts 177°
2026-04-24 23:47 42.90853 -72.26923 651 ft 69 kts 189°
2026-04-24 23:47 42.90401 -72.26960 502 ft 64 kts 187°
2026-04-24 23:47 42.90035 -72.26985 471 ft 39 kts 183°
2026-04-24 23:47 42.89827 -72.27001 471 ft 22 kts 184°
2026-04-24 23:48 42.89712 -72.27012 472 ft 12 kts 181°
2026-04-24 23:48 42.89635 -72.27017 471 ft 12 kts 182°
2026-04-24 23:48 42.89540 -72.27016 472 ft 11 kts 154°
2026-04-24 23:48 42.89521 -72.26957 472 ft 5 kts 94°
2026-04-24 23:49 42.89519 -72.26915 472 ft 0 kts 93°
2026-04-24 23:49 42.89519 -72.26912 472 ft 4 kts 93°
2026-04-24 23:49 42.89517 -72.26864 472 ft 5 kts 94°
2026-04-24 23:50 42.89505 -72.26844 472 ft 6 kts 155°
2026-04-24 23:50 42.89479 -72.26854 472 ft 4 kts 256°
2026-04-24 23:50 42.89479 -72.26867 473 ft 0 kts 274°